Home   Weather   Township of Fairfield   Past weeks
Flag for USA

Past Weather in Township of Fairfield, Minnesota, USA — Yesterday and Last 2 Weeks

Now
-2 °F

Partly cloudy.


Feels Like: -14 °F
Forecast: 8 / -13 °F
Wind: 6 mph from Southeast

Location: Fergus Falls Weather Reporting System

Current Time: Dec 15, 2019 at 7:52:33 am

Latest Report: Dec 15, 2019 at 6:55 am


Visibility: 10 mi

Pressure: 30.06 "Hg

Humidity: 77%

Dew Point: -8 °F

Location of Township of FairfieldLocation

Past Weather in Township of Fairfield — Graph

°F

Township of Fairfield Temperature Yesterday

Maximum temperature yesterday: 9 °F (at 12:16 am)
Minimum temperature yesterday: -11 °F (at 6:15 pm)
Average temperature yesterday: -5 °F

High & Low Weather Summary for the Past Weeks

 TemperatureHumidityPressure
High34 °F (Dec 4, 12:15 pm)100% (Dec 3, 7:36 am)30.44 "Hg (Dec 3, 7:36 am)
Low-20 °F (Dec 11, 4:55 am)59% (Dec 2, 1:16 pm)29.61 "Hg (Nov 30, 1:55 pm)
Average13 °F83%29.97 "Hg
* Reported Nov 30 6:15 am — Dec 15 6:36 am, Township of Fairfield. Weather by CustomWeather, © 2019

Note: Actual official high and low records may vary slightly from our data, if they occured in-between our weather recording intervals... More about our weather records

Township of Fairfield Weather History for the Previous 24 Hours

Scroll right to see more
 ConditionsComfort  
Time TempWeatherWind HumidityBarometerVisibility
6:36 am
Sun, Dec 15
-2 °FPassing clouds.7 mph77%30.06 "Hg10 mi
6:16 am-2 °FPassing clouds.6 mph77%30.06 "Hg10 mi
5:56 am-2 °FOvercast.5 mph77%30.07 "Hg10 mi
5:35 am-2 °FPassing clouds.6 mph77%30.07 "Hg10 mi
5:15 am-2 °FPassing clouds.7 mph71%30.07 "Hg10 mi
4:55 am-4 °FPassing clouds.6 mph77%30.07 "Hg10 mi
4:35 am-4 °FOvercast.5 mph77%30.06 "Hg10 mi
4:15 am-4 °FMostly cloudy.5 mph77%30.07 "Hg10 mi
3:55 am-4 °FOvercast.5 mph77%30.07 "Hg10 mi
3:35 am-4 °FMostly cloudy.No wind77%30.07 "Hg10 mi
2:56 am-6 °FMostly cloudy.No wind84%30.07 "Hg10 mi
2:35 am-6 °FMostly cloudy.No wind84%30.07 "Hg10 mi
2:15 am-6 °FMostly cloudy.No wind77%30.08 "Hg10 mi
1:55 am-6 °FOvercast.No wind77%30.08 "Hg10 mi
1:35 am-6 °FOvercast.No wind77%30.08 "Hg10 mi
1:15 am-6 °FOvercast.No wind77%30.09 "Hg10 mi
12:55 am-6 °FOvercast.No wind77%30.09 "Hg10 mi
12:35 am-6 °FMostly cloudy.No wind77%30.09 "Hg10 mi
11:55 pm
Sat, Dec 14
-8 °FMostly cloudy.No wind84%30.10 "Hg10 mi
11:35 pm-8 °FOvercast.No wind84%30.10 "Hg10 mi
11:15 pm-8 °FOvercast.No wind84%30.09 "Hg10 mi
10:56 pm-8 °FOvercast.No wind84%30.09 "Hg10 mi
10:35 pm-8 °FOvercast.3 mph84%30.09 "Hg10 mi
10:16 pm-8 °FOvercast.3 mph77%30.09 "Hg10 mi
9:55 pm-8 °FOvercast.3 mph77%30.10 "Hg10 mi
9:35 pm-8 °FOvercast.6 mph77%30.09 "Hg10 mi
9:16 pm-9 °FOvercast.5 mph77%30.09 "Hg10 mi
8:55 pm-9 °FOvercast.6 mph77%30.09 "Hg10 mi
8:35 pm-9 °FOvercast.7 mph77%30.10 "Hg10 mi
8:15 pm-9 °FOvercast.7 mph77%30.10 "Hg10 mi
7:55 pm-9 °FOvercast.5 mph77%30.10 "Hg10 mi
7:35 pm-9 °FOvercast.7 mph77%30.11 "Hg10 mi
7:16 pm-9 °FOvercast.6 mph77%30.11 "Hg10 mi
6:56 pm-11 °FOvercast.6 mph76%30.10 "Hg10 mi
6:35 pm-11 °FPassing clouds.8 mph76%30.09 "Hg10 mi
6:15 pm-11 °FPassing clouds.7 mph76%30.09 "Hg10 mi
5:55 pm-9 °FClear.6 mph77%30.08 "Hg10 mi
5:35 pm-9 °FClear.5 mph77%30.08 "Hg10 mi
4:55 pm-9 °FClear.9 mph77%30.07 "Hg10 mi
4:36 pm-8 °FSunny.12 mph77%30.06 "Hg10 mi
4:15 pm-8 °FSunny.8 mph77%30.06 "Hg10 mi
3:35 pm-6 °FSunny.13 mph77%30.06 "Hg10 mi
3:15 pm-6 °FSunny.15 mph77%30.06 "Hg10 mi
2:56 pm-6 °FSunny.16 mph77%30.06 "Hg10 mi
2:35 pm-6 °FSunny.14 mph77%30.06 "Hg10 mi
2:15 pm-6 °FSunny.15 mph77%30.06 "Hg10 mi
1:55 pm-6 °FSunny.16 mph77%30.06 "Hg10 mi
1:35 pm-6 °FSunny.15 mph77%30.06 "Hg10 mi
1:15 pm-6 °FSunny.16 mph77%30.07 "Hg10 mi
12:55 pm-6 °FSunny.17 mph77%30.07 "Hg10 mi
12:35 pm-6 °FSunny.16 mph77%30.07 "Hg10 mi
11:35 am-6 °FSunny.14 mph77%30.06 "Hg10 mi
11:16 am-6 °FSunny.16 mph77%30.06 "Hg10 mi
10:56 am-6 °FSunny.17 mph77%30.07 "Hg10 mi
10:35 am-8 °FSunny.14 mph84%30.07 "Hg10 mi
10:16 am-8 °FSunny.13 mph77%30.07 "Hg10 mi
9:55 am-8 °FSunny.13 mph84%30.06 "Hg10 mi
9:35 am-8 °FSunny.12 mph77%30.06 "Hg10 mi
9:15 am-8 °FSunny.10 mph84%30.06 "Hg10 mi
8:56 am-8 °FSunny.13 mph84%30.05 "Hg10 mi
8:35 am-8 °FSunny.10 mph84%30.05 "Hg10 mi
8:16 am-8 °FSunny.10 mph77%30.04 "Hg10 mi
7:55 am-8 °FClear.10 mph84%30.04 "Hg10 mi
7:35 am-8 °FClear.13 mph84%30.04 "Hg10 mi
7:16 am-6 °FClear.14 mph84%30.04 "Hg10 mi
Weather by CustomWeather, © 2019

See weather overview

Advertising